Location: Baix
(44.7118°N, 4.7648°E)
Time: 09:36:45
(UTC+00:00)

Vanguard 2 Rocket - Pass Details

Date: 29 November 2020
Orbit: 554 x 3325 km, 32.9° (Epoch: 21 January)

Event Time Altitude Azimuth Distance (km) Brightness Sun altitude
Rises 13:06:08 0° 276° (W) 6,848 11.6 20.1°
Reaches altitude 10° 13:12:09 10° 267° (W) 5,435 11.3 19.7°
Maximum altitude 13:23:21 26° 219° (SW) 3,299 11.9 18.8°
Drops below altitude 10° 13:30:58 10° 167° (SSE) 3,580 10.8 18.1°
Sets 13:34:00 0° 154° (SSE) 4,196 10.8 17.8°
